Regional Weather Roundup
Issued by NWS

Home | Current Version | Previous Version | Graphics & Text | Print | Product List | Glossary On
Versions: 1 2 3 4 5 6 7 8 9 10 11 12 13 14 15 16 17 18 19 20 21 22 23 24 25 26 27 28 29 30 31 32 33 34 35 36 37 38 39 40 41 42 43 44 45 46 47 48 49 50
000
ASUS45 KPSR 251700
RWRAZ

PRELIMINARY ARIZONA REGIONAL HOURLY WEATHER ROUNDUP
NATIONAL WEATHER SERVICE PHOENIX AZ
1000 AM MST THU DEC 25 2014

NOTE: FAIR INDICATES FEW OR NO CLOUDS BELOW 12,000 FEET WITH NO
SIGNIFICANT WEATHER AND/OR OBSTRUCTIONS TO VISIBILITY.

AZZ001>003-036-251800-
NORTHWEST ARIZONA

CITY           SKY/WX    TMP DP  RH WIND       PRES   REMARKS
KINGMAN        CLOUDY    44  19  36 W6        29.77R
$$

AZZ004>008-015-016-018-251800-
NORTH CENTRAL ARIZONA

CITY           SKY/WX    TMP DP  RH WIND       PRES   REMARKS
GRAND CANYON   CLOUDY    29  25  85 SW12G20   29.67S WCI  19
PRESCOTT       MOSUNNY   41  21  44 SW16      29.73R
FLAGSTAFF      NOT AVBL
PAYSON         CLOUDY    41  18  38 CALM      29.76S
PAGE           MOSUNNY   44  21  40 W12G22    29.59R
$$

AZZ009>014-017-251800-
NORTHEAST ARIZONA

CITY           SKY/WX    TMP DP  RH WIND       PRES   REMARKS
WINSLOW        NOT AVBL
SAINT JOHNS    CLOUDY    48  18  30 SW25G33   29.68F
WINDOW ROCK    CLOUDY    36  18  48 S20       29.67S WCI  25
SHOW LOW       MOSUNNY   39   9  28 SW39G45   29.69R WCI  26
$$

AZZ023-251800-
GREATER PHOENIX AREA

CITY           SKY/WX    TMP DP  RH WIND       PRES   REMARKS
PHOENIX        MOSUNNY   54  29  38 CALM      29.74R
GLENDALE       MOSUNNY   52  32  46 CALM      29.77R
LUKE AFB       MOSUNNY   52  31  45 NW1       29.75R
DEER VALLEY    CLOUDY    51  25  36 CALM      29.74R
SCOTTSDALE     MOSUNNY   56  27  32 S3        29.75R
MESA-GATEWAY   MOSUNNY   54  30  40 SE3       29.76R
CHANDLER       MOSUNNY   52  32  46 CALM      29.75R
$$

AZZ027-028-251800-
SOUTHWEST MARICOPA COUNTY AND PINAL COUNTY

CITY           SKY/WX    TMP DP  RH WIND       PRES   REMARKS
CASA GRANDE    SUNNY     54  27  35 CALM      29.75R
$$

AZZ503-504-507>509-251800-
SOUTHEAST ARIZONA

CITY           SKY/WX    TMP DP  RH WIND       PRES   REMARKS
TUCSON         PTSUNNY   62  13  14 SW13G22   29.76S
DAVIS-MONTHAN  SUNNY     60  16  18 E2        29.75S
RYAN FIELD       N/A     66  21  18 S22G32    29.75R
NOGALES        SUNNY     60   8  12 S16G25    29.84S
SIERRA VISTA   SUNNY     59  10  14 S17G29    29.81R
SAFFORD        MOSUNNY   55  12  18 E14       29.75F
$$

AZZ020-021-025-026-031-251800-
SOUTHWEST ARIZONA

CITY           SKY/WX    TMP DP  RH WIND       PRES   REMARKS
YUMA           NOT AVBL
$$

CAZ031-033-041-043-047-048-061-251800-
SOUTHERN CALIFORNIA

CITY           SKY/WX    TMP DP  RH WIND       PRES   REMARKS
DOWNTOWN L.A.  SUNNY     58  24  27 VRB5      29.86R
L.A. AIRPORT   MOSUNNY   58  24  27 N8G25     29.87R
SAN DIEGO      PTSUNNY   62  49  62 S6        29.86R
BURBANK        SUNNY     56  23  27 NE5       29.89R
ONTARIO        MOSUNNY   57  36  45 VRB3      29.85R
RIVERSIDE      MOSUNNY   58  23  26 NE13G20   29.86R
PALM SPRINGS   MOSUNNY   58  34  40 VRB3      29.84R
EL CENTRO NAS  SUNNY     63  41  44 N13G20    29.78R
IMPERIAL       SUNNY     61  38  42 NE10      29.78R
BLYTHE         CLOUDY    59  29  31 NW12      29.81R
$$

NVZ020-UTZ003-251800-
SOUTHERN NEVADA-UTAH

CITY           SKY/WX    TMP DP  RH WIND       PRES   REMARKS
LAS VEGAS      NOT AVBL
SALT LAKE CITY LGT SNOW  28  25  88 W13       29.65R FOG     WCI  17
$$

NMZ009-TXZ055-251800-
NEW MEXICO-WEST TEXAS

CITY           SKY/WX    TMP DP  RH WIND       PRES   REMARKS
ALBUQUERQUE    PTSUNNY   40  10  29 SW8       29.75R WCI  34
EL PASO        CLOUDY    44  12  27 SE9       29.85R
$$


........................KEY........................
SKY/WX - SKY CONDITION/WEATHER
TMP    - TEMPERATURE IN FAHRENHEIT
DP     - DEW POINT IN FAHRENHEIT
RH     - RELATIVE HUMIDITY IN PERCENT
WIND   - DIRECTION AND SPEED IN MILES PER HOUR (MPH)
VRB    - VARIABLE WIND DIRECTION
PRES   - MEAN SEA LEVEL PRESSURE IN INCHES OF MERCURY
         F - FALLING PRESSURE   R - RISING PRESSURE
         S - STEADY PRESSURE
VSB    - VISIBILITY IN MILES
HX     - HEAT INDEX IN FAHRENHEIT
WCI    - WIND CHILL INDEX IN FAHRENHEIT
TC     - TEMPERATURE IN CELSIUS WHICH IS ALSO KNOWN AS
         TEMPERATURE IN CENTIGRADE
AFB    - AIR FORCE BASE
         LUKE AFB IS LUKE AIR FORCE BASE
         DAVIS-MONTHAN IS DAVIS-MONTHAN AIR FORCE BASE
NAS    - NAVAL AIR STATION
         EL CENTRO NAS IS EL CENTRO NAVAL AIR STATION
N/A    - NOT AVAILABLE



USA.gov is the U.S. government's official web portal to all federal, state and local government web resources and services.